x

8665530 - Charleston, Sc (chts1) Weather Station

12:30pm - Sun 7th Feb 2016 All times are EST. -5 hours from GMT.

  • Wind
    18mph, 29mph gusts
  • Sea Temp 53°f
  • Air Temp 41°f
  • Sea Pressure 1012.3mb
  • 8665530 - Charleston, Sc
  • 8665530 - Charleston, Sc

More Historic Weather Station data

Upgrade to MSW Pro to gain access to the past 30 days of data for over 8000 Wavebouys and Weather Stations around the globe.

Join Pro

Comparision Forecast

View Surf forecast
   
Sun 02/07 12:30pm 18 29 mph 1012.3mb 53f 41f
12:24pm 16 29 mph 1012.4mb 53f 41f
12:18pm 21 28 mph 1012.4mb 53f 40f
12:12pm 16 28 mph 1012.4mb 53f 40f
12:06pm 23 32 mph 1012.3mb 53f 40f
12:00pm 20 25 mph 1012.4mb 53f 40f
11:54am 22 30 mph 1012.7mb 53f 40f
11:48am 21 33 mph 1012.8mb 53f 40f
11:42am 17 25 mph 1013mb 53f 40f
11:36am 13 30 mph 1013.1mb 53f 40f
11:30am 17 28 mph 1013.1mb 53f 40f
11:18am 18 24 mph 1013.3mb 53f 40f
11:12am 14 23 mph 1013.5mb 53f 40f
11:06am 15 21 mph 1013.6mb 53f 40f
11:00am 18 24 mph 1013.7mb 53f 40f
10:54am 15 21 mph 1013.8mb 54f 40f
10:48am 16 23 mph 1013.9mb 54f 40f
10:42am 13 21 mph 1014mb 54f 40f
10:36am 13 18 mph 1013.8mb 54f 40f
10:30am 11 22 mph 1013.9mb 54f 41f
10:24am 10 18 mph 1014mb 54f 41f
10:18am 10 20 mph 1014mb 54f 41f
10:12am 10 21 mph 1014mb 54f 41f
10:06am 11 17 mph 1013.6mb 54f 41f
10:00am 13 18 mph 1013.6mb 54f 41f
9:54am 11 18 mph 1013.6mb 54f 41f
9:48am 10 18 mph 1013.6mb 54f 41f
9:42am 13 20 mph 1013.6mb 54f 41f
9:36am 10 18 mph 1013.9mb 54f 41f
9:30am 11 15 mph 1013.9mb 54f 41f
9:24am 11 17 mph 1014mb 54f 41f
9:18am 11 16 mph 1013.7mb 54f 41f
9:12am 7 13 mph 1013.4mb 54f 42f
9:06am 8 13 mph 1013.8mb 54f 41f
9:00am 9 16 mph 1013.7mb 54f 41f
8:54am 8 14 mph 1013.5mb 53f 41f
8:48am 8 14 mph 1013.5mb 54f 41f
8:42am 9 15 mph 1013.3mb 54f 41f
8:36am 10 15 mph 1013.4mb 54f 41f
8:30am 10 17 mph 1013.6mb 54f 41f
8:24am 13 17 mph 1013.4mb 54f 40f
8:18am 13 17 mph 1013.2mb 54f 41f
8:12am 13 17 mph 1013.1mb 54f 40f
8:06am 11 17 mph 1013.3mb 54f 40f
8:00am 14 17 mph 1013mb 54f 41f
7:54am 10 20 mph 1012.6mb 54f 41f
7:48am 13 22 mph 1012.5mb 54f 41f
7:42am 14 20 mph 1012.8mb 54f 40f
7:36am 14 18 mph 1013.4mb 54f 40f
7:30am 14 22 mph 1013.4mb 54f 41f
7:24am 17 22 mph 1012.9mb 54f 40f
7:18am 14 21 mph 1012.8mb 54f 41f
7:12am 15 22 mph 1013.4mb 54f 40f
7:06am 13 16 mph 1013.6mb 54f 41f
7:00am 9 17 mph 1013.5mb 54f 41f
6:54am 10 17 mph 1013.3mb 54f 41f
6:48am 13 18 mph 1013.2mb 54f 40f
6:42am 15 23 mph 1012.9mb 54f 40f
6:36am 11 22 mph 1013.3mb 54f 40f
6:30am 13 20 mph 1012.8mb 54f 41f
6:24am 13 20 mph 1012.9mb 54f 41f
6:18am 14 24 mph 1013.1mb 54f 41f
6:12am 14 22 mph 1013.4mb 54f 41f
6:06am 11 24 mph 1013.3mb 54f 41f
6:00am 14 20 mph 1013.4mb 54f 41f
5:54am 13 21 mph 1013.6mb 54f 41f
5:48am 11 20 mph 1014mb 54f 41f
5:42am 10 22 mph 1014mb 54f 41f
5:36am 13 20 mph 1013.7mb 54f 40f
5:30am 13 20 mph 1014mb 54f 41f
5:24am 9 18 mph 1014.1mb 54f 41f
5:18am 13 22 mph 1013.7mb 54f 40f
5:12am 13 20 mph 1013.4mb 54f 40f
5:06am 11 17 mph 1013.8mb 54f 40f
5:00am 13 22 mph 1013.5mb 54f 40f
4:48am  -  mph - 54f 40f
4:42am  -  mph - 54f 40f
4:36am  -  mph - 54f 40f
4:30am 9 17 mph 1014.2mb 54f 40f
4:24am 13 20 mph 1014mb 54f 40f
4:18am 10 17 mph 1014.6mb 54f 40f
4:12am 13 16 mph 1014.4mb 54f 40f
4:06am 11 20 mph 1014.7mb 54f 40f
4:00am 11 16 mph 1014.8mb 54f 40f
3:54am 14 23 mph 1014.3mb 54f 41f
3:48am 11 18 mph 1014.6mb 54f 40f
3:42am 11 17 mph 1015.2mb 54f 40f
3:36am 13 21 mph 1015.3mb 54f 40f
3:24am 10 17 mph 1015.1mb 53f 40f
3:18am 10 22 mph 1015.1mb 53f 41f
3:12am 14 25 mph 1014.8mb 53f 41f
3:06am 21 24 mph 1014.9mb 53f 41f
3:00am 18 23 mph 1015.2mb 53f 41f
2:54am 14 21 mph 1015.3mb 53f 41f
2:48am 14 21 mph 1015.7mb 53f 41f
2:42am 16 24 mph 1015.6mb 54f 41f
2:36am 11 23 mph 1015.5mb 54f 40f
2:30am 13 23 mph 1015.5mb 54f 41f
2:24am 11 23 mph 1016mb 54f 41f
2:18am 14 24 mph 1015.7mb 54f 40f
2:12am 14 21 mph 1016mb 54f 40f
2:06am 13 21 mph 1015.9mb 54f 41f
2:00am 15 24 mph 1015.9mb 54f 41f
1:54am 13 20 mph 1016.1mb 54f 40f
1:48am 14 22 mph 1016mb - -
1:42am 11 18 mph 1016.3mb - -
1:36am 11 16 mph 1016.9mb - -
1:30am 9 18 mph 1017.1mb 54f 40f
1:24am 13 17 mph 1017mb 54f 40f
1:18am 10 18 mph 1017.4mb 54f 41f
1:12am 11 20 mph 1017.7mb 54f 40f
1:06am 9 18 mph 1017.8mb 54f 41f
1:00am 16 22 mph 1017.5mb 54f 41f
12:54am 21 25 mph 1017.5mb 54f 42f
12:48am 21 26 mph 1017.7mb 54f 41f
12:42am 23 29 mph 1017.5mb 54f 41f
12:36am 20 26 mph 1017.8mb 54f 42f
12:30am 14 20 mph 1018.5mb 54f 42f
12:24am 8 14 mph 1018.2mb 54f 42f
12:18am 9 15 mph 1018.6mb 54f 42f
12:12am 9 17 mph 1018.5mb 54f 42f
12:06am 8 18 mph 1018.8mb 54f 42f
12:00am 10 15 mph 1018.5mb 54f 42f
Sat 02/06 11:54pm 9 14 mph 1018.9mb 54f 42f
11:48pm 8 15 mph 1019.1mb 54f 42f
11:42pm 7 15 mph 1019.2mb 54f 42f
11:36pm 7 14 mph 1019.5mb 55f 43f
11:30pm 9 15 mph 1019.4mb 55f 43f
11:24pm 9 14 mph 1019.4mb 55f 43f
11:18pm 7 13 mph 1019.9mb 55f 43f
11:12pm 8 15 mph 1019.7mb 55f 43f
11:06pm 8 15 mph 1019.5mb 55f 43f
11:00pm 7 13 mph 1019.8mb 55f 43f
10:54pm 8 13 mph 1019.8mb 55f 43f
10:48pm 7 13 mph 1020mb 55f 43f
10:42pm 7 13 mph 1020.3mb 55f 42f
10:36pm 9 14 mph 1020.6mb 55f 42f
10:30pm 8 14 mph 1020.6mb 55f 42f
10:24pm 9 15 mph 1020.9mb 55f 42f
10:18pm 9 17 mph 1021.2mb 55f 42f
10:12pm 8 14 mph 1021.3mb 55f 42f
10:06pm 8 13 mph 1021.5mb 55f 42f
9:48pm 8 14 mph 1021.7mb 55f 43f
9:42pm 9 14 mph 1021.8mb 55f 43f
9:36pm 8 14 mph 1021.5mb 55f 44f
9:30pm 7 15 mph 1021.3mb 55f 44f
9:24pm 9 16 mph 1021mb 55f 44f
9:18pm 10 15 mph 1020.8mb 55f 44f
9:12pm 8 13 mph 1020.9mb 55f 44f
9:06pm 8 13 mph 1021mb 55f 45f
9:00pm 6 11 mph 1021.1mb 55f 45f
8:54pm 7 11 mph 1021.4mb 55f 45f
8:48pm  -  mph 1021.4mb 55f 45f
8:36pm  -  mph 1021.7mb 55f 45f
8:30pm 8 13 mph 1021.8mb 55f 45f
8:24pm 8 13 mph 1022mb 55f 45f
8:18pm 7 14 mph 1022.2mb 55f 45f
8:12pm 7 10 mph 1022.3mb 55f 45f
8:06pm 7 11 mph 1022.1mb 55f 45f
8:00pm 7 13 mph 1022mb 55f 45f
7:54pm 9 14 mph 1021.9mb 55f 45f
7:48pm 7 13 mph 1022mb 55f 45f
7:42pm 8 14 mph 1022mb 55f 45f
7:36pm 8 13 mph 1022.1mb 55f 46f
7:30pm 8 15 mph 1022.1mb 55f 46f
7:24pm 10 15 mph 1022mb 55f 46f
7:18pm 9 16 mph 1022.1mb 55f 46f
7:12pm 9 17 mph 1022.5mb 55f 46f
7:06pm 8 14 mph 1022.7mb 55f 47f
7:00pm 8 14 mph 1022.8mb 55f 47f
6:54pm 8 13 mph 1022.8mb 55f 47f
6:48pm 8 14 mph 1022.9mb 55f -
6:42pm 8 13 mph 1023mb 55f -
6:36pm 6 11 mph 1023.3mb 55f -
6:30pm 7 10 mph 1023.3mb 55f 47f
6:24pm 7 10 mph 1023.4mb 55f 47f
6:18pm 9 14 mph 1023.4mb 55f 47f
6:12pm 7 13 mph 1023.4mb 55f 47f
6:06pm 7 10 mph 1023.5mb 55f 47f
6:00pm 7 11 mph 1023.4mb 55f 48f
5:54pm 7 10 mph 1023.4mb 55f 49f
5:48pm 6 10 mph 1023.4mb 55f 49f
5:42pm 8 13 mph 1023.5mb 55f 49f
5:36pm 8 11 mph 1023.6mb 55f 49f
5:30pm 7 10 mph 1023.6mb 55f 49f
5:24pm 5 13 mph 1023.5mb 54f 49f
5:18pm 5 11 mph 1023.5mb 55f 49f
5:12pm 2 9 mph 1023.4mb 55f 50f
5:06pm 6 11 mph 1023.4mb 55f 51f
5:00pm  -  mph 1023.4mb 55f 51f
4:54pm  -  mph 1023.4mb 55f 51f
4:48pm 1 5 mph 1023.3mb 55f 51f
4:42pm 1 6 mph 1023.3mb 55f 51f
4:36pm 2 7 mph 1023.3mb 55f 51f
4:30pm 2 8 mph 1023.2mb 55f 51f
4:24pm 3 9 mph 1023.1mb 55f 51f
4:18pm 3 8 mph 1023.1mb 55f 51f
4:12pm 2 8 mph 1023.2mb 55f 51f
4:06pm 2 8 mph 1023.2mb 55f 51f
4:00pm 3 8 mph 1023.1mb 55f 51f
3:54pm 2 6 mph 1023mb 55f 51f
3:48pm 2 5 mph 1023.1mb 55f 51f
3:42pm 2 3 mph 1023.2mb 55f 51f
3:36pm 2 5 mph 1023.3mb 55f 51f
3:30pm 2 5 mph 1023.4mb 55f 51f
3:24pm 1 6 mph 1023.4mb 55f 51f
3:18pm 3 8 mph 1023.5mb 55f 51f
3:12pm 1 6 mph 1023.6mb 55f 51f
3:06pm 8 16 mph 1023.6mb 55f 51f
3:00pm 16 18 mph 1023.5mb 55f 50f
2:54pm 16 17 mph 1023.5mb 55f 50f
2:48pm 13 15 mph 1023.6mb 55f 50f
2:42pm 14 16 mph 1023.4mb 55f 50f
2:36pm 14 16 mph 1023.4mb 55f 50f
2:30pm 11 14 mph 1023.6mb 55f 50f
2:24pm 11 15 mph 1023.7mb 55f 50f
2:18pm 13 14 mph 1023.8mb 55f 50f
2:12pm 11 14 mph 1023.8mb 54f 51f
2:06pm 10 14 mph 1023.9mb 54f 51f
2:00pm 10 13 mph 1024mb 54f 51f
1:54pm 2 8 mph 1024.2mb 54f 51f
1:48pm 9 11 mph 1024.2mb 54f 51f
1:42pm 6 13 mph 1024.4mb 54f 51f
1:36pm 11 17 mph 1024.3mb 54f 51f
1:30pm 5 8 mph 1024.4mb 54f 51f
1:24pm 8 14 mph 1024.6mb 54f 51f
1:18pm 9 14 mph 1024.6mb 54f 51f
1:12pm 9 11 mph 1024.7mb 54f 51f
1:06pm 7 11 mph 1024.8mb 54f 50f
1:00pm 7 14 mph 1024.9mb 54f 50f
12:54pm 10 13 mph 1025.1mb 54f 50f
12:48pm 9 14 mph 1025.3mb 54f 50f
12:42pm 10 13 mph 1025.3mb 54f 50f
12:36pm 8 10 mph 1025.5mb 54f 50f
12:30pm 9 11 mph 1025.7mb 54f 50f
12:24pm 10 15 mph 1025.8mb 54f 50f
12:18pm 11 14 mph 1026mb 54f 49f
12:12pm 11 15 mph 1026.2mb 54f 49f
12:06pm 10 14 mph 1026.5mb 54f 49f
12:00pm 2 7 mph 1026.5mb 54f 51f
11:54am 3 9 mph 1026.5mb 54f 51f
11:48am 3 10 mph 1026.3mb 54f 51f
11:42am 5 8 mph 1026.3mb 54f 51f
11:36am 3 9 mph 1026.7mb 54f 50f
11:30am 2 6 mph 1026.9mb 54f 50f
11:24am 2 8 mph 1026.9mb 54f 50f
11:18am 3 8 mph 1027.1mb 54f 49f
11:12am 2 7 mph 1027.2mb 54f 49f
11:06am 2 7 mph 1027.4mb 54f 48f
11:00am 2 9 mph 1027.5mb 54f 48f
10:54am 2 7 mph 1027.4mb 54f 48f
10:48am 1 6 mph 1027.6mb 54f 47f
10:42am 2 10 mph 1027.8mb 54f 47f
10:36am 6 11 mph 1027.9mb 54f 47f
10:30am 1 7 mph 1027.8mb 54f 46f
10:24am 2 8 mph 1027.8mb 54f 46f
10:18am 2 8 mph 1028.1mb 54f 46f
10:12am 2 7 mph 1028mb 54f 47f
10:06am 2 9 mph 1028.1mb 54f 46f
10:00am 1 8 mph 1028.1mb 54f 46f
9:54am 2 8 mph 1028.1mb 54f 45f
9:48am 2 9 mph 1028.2mb 54f 45f
9:42am 6 9 mph 1028.2mb 54f 45f
9:36am 5 11 mph 1028.2mb 54f 45f
9:30am 5 11 mph 1028.1mb 54f 45f
9:24am 5 10 mph 1028.3mb 54f 45f
9:18am 3 9 mph 1028.3mb 54f 45f
9:12am 3 10 mph 1028.1mb 54f 45f
9:06am 3 9 mph 1028mb 54f 45f
9:00am 5 11 mph 1028mb 54f 45f
8:54am 7 11 mph 1027.8mb 54f 45f
8:48am 9 13 mph 1027.9mb 54f 45f
8:42am 8 11 mph 1028.1mb 54f 45f
8:36am 6 11 mph 1028.4mb 54f 45f
8:30am 6 9 mph 1028.3mb 54f 45f
8:24am 6 10 mph 1028.4mb 54f 45f
8:18am 6 13 mph 1028.4mb 54f 44f
8:12am 6 10 mph 1028.2mb 55f 44f
8:06am 3 9 mph 1028.3mb 54f 44f
8:00am 6 11 mph 1028.3mb 54f 44f
7:54am 8 13 mph 1028.2mb 54f 44f
7:48am 6 10 mph 1028.3mb 54f 44f
7:42am 5 10 mph 1028.2mb 54f 44f
7:36am 6 9 mph 1028.1mb 54f 44f
7:30am 5 10 mph 1028.1mb 54f 44f
7:24am 6 9 mph 1028mb 54f 44f
7:18am 6 9 mph 1028mb 54f 44f
7:06am 6 10 mph 1027.7mb 54f 44f
7:00am 5 10 mph 1027.7mb 55f 44f
6:54am 6 11 mph 1027.8mb 55f 44f
6:36am 6 8 mph 1027.8mb 55f 43f
6:30am 7 13 mph 1027.7mb 55f 44f
6:24am 7 15 mph 1027.5mb 55f 44f
6:18am 10 14 mph 1027.6mb 55f 44f
6:12am 8 10 mph 1027.7mb 55f 44f
6:06am 7 13 mph 1027.7mb 55f 44f
6:00am 6 11 mph 1027.7mb 55f 44f
5:54am 8 13 mph 1027.9mb 55f 44f
5:48am 7 11 mph 1027.9mb 55f 44f
5:42am 7 11 mph 1027.8mb 55f 43f
5:36am 7 10 mph 1027.9mb 54f 42f
5:30am 8 10 mph 1028.1mb 54f 42f
5:24am 7 11 mph 1028.1mb 54f 42f
5:18am 7 9 mph 1028.2mb 54f 42f
5:12am 7 10 mph 1028.2mb 54f 42f
5:06am 7 11 mph 1028.1mb 54f 42f
5:00am 7 10 mph 1028.2mb 54f 42f
4:54am 7 9 mph 1028mb 54f 41f
4:48am  -  mph - 54f 41f
4:42am  -  mph - 54f 43f
4:36am  -  mph - 54f 42f
4:30am 8 14 mph 1027.4mb 54f 43f
4:24am 9 13 mph 1027.3mb 54f 43f
4:18am 7 11 mph 1027.4mb 54f 42f
4:12am 10 14 mph 1027.3mb 54f 42f
4:06am 9 13 mph 1027.5mb 54f 41f
4:00am 8 10 mph 1027.5mb 54f 42f
3:54am 6 13 mph 1027.5mb 54f 42f
3:48am 9 15 mph 1027.4mb 54f 43f
3:42am 11 16 mph 1027.5mb 54f 44f
3:36am 13 16 mph 1027.7mb 54f 44f
3:30am 13 16 mph 1027.8mb 54f 44f
3:24am 13 15 mph 1027.6mb 54f 44f
3:18am 14 15 mph 1027.6mb 54f 44f
3:12am 13 14 mph 1027.6mb 54f 43f
3:06am 11 13 mph 1027.8mb 54f 42f
3:00am 11 14 mph 1027.7mb 54f 42f
2:54am 11 14 mph 1027.7mb 54f 42f
2:48am 10 13 mph 1027.9mb 54f 42f
2:42am 10 13 mph 1027.9mb 54f 42f
2:36am 10 11 mph 1028mb 54f 42f
2:30am 10 13 mph 1028mb 54f 42f
2:24am 10 13 mph 1028mb 54f 42f
2:18am 10 11 mph 1028.1mb 54f 42f
2:12am 10 11 mph 1028.2mb 54f 42f
2:06am 10 11 mph 1028.1mb 54f 42f
2:00am 10 13 mph 1028.1mb 54f 42f
1:54am 10 11 mph 1028.1mb 54f 42f
1:48am 10 11 mph 1028.1mb 54f 42f
1:42am 10 13 mph 1028.2mb 54f 42f
1:36am 9 11 mph 1028.2mb 54f 42f
1:30am 10 13 mph 1028.2mb 54f 42f
1:24am 10 11 mph 1028.1mb 54f 43f
1:18am 10 13 mph 1028.1mb 54f 43f
1:12am 10 13 mph 1028.2mb 54f 43f
1:06am 10 13 mph 1028.2mb 54f 43f
1:00am 11 14 mph 1028.1mb 54f 43f
12:54am 13 14 mph 1028.2mb 54f 43f
12:48am 10 13 mph 1028.3mb 54f 43f
12:42am 10 13 mph 1028.3mb 54f 44f
12:36am 10 11 mph 1028.3mb 54f 44f
12:30am 10 11 mph 1028.3mb 54f 44f
12:24am 10 11 mph 1028.3mb 54f 44f
12:18am 9 11 mph 1028.3mb 54f 44f
12:12am 9 11 mph 1028.4mb 55f 44f
12:06am 9 11 mph 1028.5mb 55f 44f
12:00am 9 11 mph 1028.6mb 55f 44f
Fri 02/05 11:54pm 10 11 mph 1028.6mb 55f 44f
11:48pm 9 11 mph 1028.6mb 55f 45f
11:42pm 9 10 mph 1028.6mb 55f 45f
11:36pm 9 10 mph 1028.8mb 55f 45f
11:30pm 8 10 mph 1028.8mb 55f 45f
11:24pm 8 10 mph 1028.8mb 55f 45f
11:18pm 9 10 mph 1028.7mb 55f 45f
11:12pm 8 10 mph 1028.7mb 55f 46f
11:06pm 9 11 mph 1028.7mb 55f 46f
11:00pm 9 11 mph 1028.7mb 55f 46f
10:54pm 9 10 mph 1028.7mb 55f 46f
10:48pm 9 11 mph 1028.7mb 55f 46f
10:42pm 9 10 mph 1028.7mb 55f 46f
10:36pm 8 10 mph 1028.8mb 55f 46f
10:30pm 9 10 mph 1028.7mb 55f 46f
10:24pm 9 10 mph 1028.7mb 55f 46f
10:18pm 9 10 mph 1028.7mb 55f 47f
10:12pm 9 11 mph 1028.9mb 55f 47f
10:06pm 9 13 mph 1028.7mb 55f 47f
10:00pm 9 13 mph 1028.8mb 55f 47f
9:54pm 9 11 mph 1028.7mb 55f 47f
9:48pm 9 13 mph 1028.7mb 55f 47f
9:42pm 8 10 mph 1028.7mb 55f 47f
9:36pm 3 7 mph 1028.6mb 55f 47f
9:30pm 6 11 mph 1028.5mb 55f 47f
9:24pm 7 11 mph 1028.5mb 55f 48f
9:18pm 7 9 mph 1028.5mb 55f 48f
9:12pm 7 8 mph 1028.5mb 55f 47f
9:06pm 8
mph
1028.4mb 55f 47f
9:00pm 7 8 mph 1028.4mb 55f 47f
8:54pm 7 8 mph 1028.4mb 55f 47f
8:48pm 6 7 mph 1028.3mb 55f 48f
8:42pm 6 7 mph 1028.3mb 55f 47f
8:36pm 6 7 mph 1028.3mb 55f 48f
8:30pm 5 6 mph 1028.3mb 55f 48f
8:24pm 7 9 mph 1028.2mb 55f 48f
8:18pm 6 8 mph 1028.1mb 55f 48f
8:12pm 6 7 mph 1028.2mb 55f 48f
8:06pm 5 7 mph 1028.3mb 55f 48f
8:00pm 5 7 mph 1028.3mb 55f 47f
7:54pm 5 6 mph 1028.2mb 55f 47f
7:48pm 5 6 mph 1028.1mb 55f 47f
7:42pm 5 8 mph 1027.9mb 55f 48f
7:36pm 6 7 mph 1027.8mb 55f 48f
7:30pm 5 8 mph 1027.7mb 55f 48f
7:24pm 5 7 mph 1027.7mb 55f 48f
7:18pm 6 9 mph 1027.7mb 55f 49f
7:12pm 5 7 mph 1027.6mb 55f 49f
7:06pm 3 6 mph 1027.6mb 55f 49f
7:00pm 5 7 mph 1027.5mb 55f 49f
6:54pm 5 7 mph 1027.5mb 55f 48f
6:48pm 6 7 mph 1027.4mb 55f 48f
5:48pm  -  mph - 55f 50f
5:42pm  -  mph - 55f 50f
5:36pm  -  mph - 55f 51f
5:30pm 6 11 mph 1026.1mb 55f 51f
5:24pm 9 14 mph 1026.1mb 55f 51f
5:18pm  -  mph 1026.1mb 55f 51f
5:12pm  -  mph 1025.9mb 55f 51f
5:06pm  -  mph 1025.9mb 55f 52f
5:00pm 8 18 mph 1025.9mb 55f 51f
4:54pm 9 13 mph 1025.8mb 55f 52f
4:48pm  -  mph 1025.9mb 55f 52f
4:42pm  -  mph 1025.7mb 55f 51f
4:36pm  -  mph 1025.6mb 55f 51f
4:30pm 9 13 mph 1025.5mb 55f 53f
4:24pm 8 17 mph 1025.5mb 55f 52f
4:18pm 10 14 mph 1025.5mb 55f 53f
4:12pm 8 16 mph 1025.6mb 55f 51f
4:06pm 9 14 mph 1025.7mb 55f 53f
4:00pm 8 11 mph 1025.7mb 55f 51f
3:54pm 7 14 mph 1025.7mb 55f 52f
3:48pm 7 13 mph 1025.7mb 55f 53f
3:42pm 11 15 mph 1025.6mb 55f 54f
3:36pm 7 14 mph 1025.5mb 55f 53f
3:30pm 9 14 mph 1025.5mb 55f 54f
3:24pm 10 15 mph 1025.5mb 55f 53f
3:18pm 7 11 mph 1025.4mb 55f 51f
3:12pm 6 10 mph 1025.4mb 55f 52f
3:06pm 7 11 mph 1025.5mb 55f 52f
3:00pm 8 11 mph 1025.4mb 55f 53f
2:54pm 7 11 mph 1025.4mb 55f 52f
2:48pm 9 13 mph 1025.3mb 55f 53f
2:42pm 8 13 mph 1025.3mb 55f 53f
2:36pm 7 11 mph 1025.3mb 55f 51f
2:30pm 7 15 mph 1025.3mb 55f 52f
2:24pm 9 13 mph 1025.3mb 55f 53f
2:18pm 8 13 mph 1025.3mb 55f 53f
2:12pm 9 15 mph 1025.3mb 55f 53f
2:06pm 7 14 mph 1025.3mb 55f 51f
2:00pm 7 14 mph 1025.3mb 55f 52f
1:54pm 8 15 mph 1025.4mb 55f 52f
1:48pm 9 18 mph 1025.5mb 55f 52f
1:42pm 9 20 mph 1025.4mb 55f 52f
1:36pm 9 14 mph 1025.6mb 55f 50f
1:30pm 5 15 mph 1025.5mb 55f 52f
1:24pm 11 17 mph 1025.6mb 55f 53f
1:18pm 8 16 mph 1025.5mb 55f 53f
1:12pm 14 18 mph 1025.5mb 55f 53f
1:06pm 8 14 mph 1025.6mb 55f 53f
1:00pm 8 15 mph 1025.6mb 55f 52f
12:54pm 7 16 mph 1025.6mb 55f 50f
12:48pm 9 17 mph 1025.5mb 55f 51f
12:42pm 10 17 mph 1025.5mb 55f 53f
12:36pm 13 18 mph 1025.5mb 55f 53f
12:30pm 10 16 mph 1025.8mb 55f 52f
12:24pm 9 15 mph 1025.8mb 55f 52f
12:18pm 8 13 mph 1025.8mb 55f 51f
12:12pm 10 15 mph 1025.8mb 55f 51f
12:06pm 8 15 mph 1025.8mb 55f 51f
12:00pm 9 14 mph 1025.8mb 55f 51f
11:54am 9 16 mph 1025.7mb 55f 51f
11:48am 13 16 mph 1025.7mb 55f 51f
11:42am 7 16 mph 1025.7mb 55f 51f
11:36am 13 17 mph 1025.7mb 54f 49f
11:30am 10 15 mph 1025.9mb 54f 49f
11:24am 9 18 mph 1025.9mb 54f 50f
11:18am 8 16 mph 1025.8mb 54f 50f
11:12am 8 15 mph 1025.9mb 54f 49f
11:06am 9 15 mph 1026mb 54f 50f
11:00am 10 18 mph 1025.9mb 54f 51f
10:54am 9 15 mph 1026mb 54f 51f
10:48am 9 14 mph 1025.9mb 54f 50f
10:42am 13 17 mph 1026mb 54f 49f
10:36am 9 14 mph 1025.9mb 54f 49f
10:30am 11 17 mph 1025.9mb 54f 49f
10:24am 9 17 mph 1025.9mb 54f 48f
10:18am 10 15 mph 1025.9mb 54f 49f
10:12am 10 18 mph 1025.8mb 54f 49f
10:06am 14 18 mph 1025.7mb 54f 48f
10:00am 10 21 mph 1025.6mb 54f 49f
9:54am 8 14 mph 1025.5mb 55f 49f
9:48am 11 18 mph 1025.5mb 55f 49f
9:42am 14 21 mph 1025.5mb 55f 49f
9:36am 13 18 mph 1025.4mb 55f 48f
9:30am 14 21 mph 1025.2mb 55f 48f
9:24am 14 20 mph 1025.1mb 55f 48f
9:18am 11 20 mph 1025mb 55f 48f
9:12am 10 16 mph 1024.9mb 55f 49f
9:06am 9 20 mph 1024.8mb 55f 49f
9:00am 13 25 mph 1024.7mb 55f 48f
8:54am 11 17 mph 1024.6mb 55f 48f
8:48am 11 18 mph 1024.6mb 55f 48f
8:42am 13 23 mph 1024.5mb 55f 48f
8:36am 15 25 mph 1024.5mb 55f 48f
8:30am 11 18 mph 1024.3mb 55f 48f
8:24am 9 24 mph 1024.1mb 55f 48f
8:18am 17 25 mph 1024.1mb 55f 48f
8:12am 15 23 mph 1023.8mb 55f 48f
8:06am 13 22 mph 1023.7mb 55f 48f
8:00am 13 20 mph 1023.6mb 55f 48f
7:54am 10 20 mph 1023.5mb 55f 48f
7:48am 13 18 mph 1023.3mb 55f 48f
7:42am 13 22 mph 1023.2mb 55f 47f
7:36am 16 23 mph 1023.1mb 55f 47f
7:30am 11 21 mph 1022.8mb 55f 47f
7:24am 15 20 mph 1022.6mb 55f 47f
7:18am 11 23 mph 1022.4mb 55f 47f
7:12am 16 21 mph 1022.2mb 55f 47f
7:06am 13 24 mph 1022mb 55f 47f
7:00am 16 26 mph 1021.8mb 55f 47f
6:54am 17 25 mph 1021.7mb 55f 47f
6:48am 14 22 mph 1021.6mb 55f 47f
6:42am 16 24 mph 1021.4mb 55f 47f
6:36am 14 22 mph 1021.2mb 55f 47f
6:30am 11 18 mph 1021mb 55f 47f
6:24am 10 18 mph 1020.8mb 55f 47f
6:18am 10 18 mph 1020.6mb 55f 47f
6:12am 10 18 mph 1020.5mb 55f 47f
6:06am 8 16 mph 1020.4mb 55f 47f
6:00am 9 14 mph 1020.2mb 55f 46f
5:54am 8 18 mph 1020mb 55f 46f
5:48am 11 14 mph 1019.9mb 55f 46f
5:42am 10 14 mph 1019.7mb 55f 46f
5:36am 13 17 mph 1019.5mb 55f 46f
5:30am 10 17 mph 1019.3mb 55f 46f
5:24am 9 16 mph 1019mb 55f 46f
5:18am 11 18 mph 1019mb 55f 46f
5:12am 11 21 mph 1018.7mb 55f 46f
5:06am 9 16 mph 1018.5mb 55f 46f
5:00am 8 15 mph 1018.5mb 55f 45f
4:54am 14 21 mph 1018.3mb 55f 45f
4:48am  -  mph - 55f 45f
4:42am  -  mph - 55f 45f
4:36am  -  mph - 55f 45f
4:30am 9 18 mph 1017.6mb 55f 45f
4:24am 10 18 mph 1017.6mb 55f 46f
4:18am 11 18 mph 1017.3mb 55f 46f
4:12am 7 16 mph 1017.2mb 55f 46f
4:06am 8 17 mph 1017.3mb 55f 46f
4:00am 10 21 mph 1017.2mb 55f 46f
3:54am 11 17 mph 1017.2mb 55f 46f
3:48am 13 20 mph 1017mb 55f 46f
3:42am 8 20 mph 1016.9mb 55f 47f
3:36am 8 18 mph 1016.7mb 55f 47f
3:30am 13 20 mph 1016.7mb 55f 47f
3:24am 10 18 mph 1016.8mb 55f 47f
3:18am 11 21 mph 1016.6mb 55f 47f
3:12am 9 14 mph 1016.5mb 55f 48f
3:06am 10 17 mph 1016.4mb 55f 48f
3:00am 9 15 mph 1016.2mb 55f 48f
2:54am 11 18 mph 1016.3mb 55f 48f
2:48am 9 16 mph 1016.3mb 55f 48f
2:42am 8 15 mph 1016.1mb 55f 48f
2:36am 9 17 mph 1016mb 55f 49f
2:30am 13 20 mph 1016.1mb 55f 49f
2:24am 9 21 mph 1016mb 55f 49f
2:18am 14 22 mph 1015.9mb 55f 49f
2:12am 7 18 mph 1015.9mb 55f 50f
2:06am 11 20 mph 1015.8mb 55f 50f
2:00am 8 17 mph 1015.6mb 55f 50f
1:54am 10 20 mph 1015.5mb 55f 50f
1:48am 8 16 mph - - -
1:42am 9 15 mph - - -
1:36am 10 20 mph - - -
1:30am 13 20 mph 1015.3mb - 51f
1:24am 13 22 mph 1015.2mb - 52f
1:18am  -  mph 1015.1mb 55f 52f
1:12am  -  mph 1015mb 55f 52f
1:06am  -  mph 1014.7mb 55f 52f
1:00am 13 20 mph 1014.6mb 55f 53f
12:54am 15 22 mph 1014.5mb 55f 53f
12:48am 10 20 mph 1014.5mb 55f 53f
12:42am 8 18 mph 1014.5mb 55f 53f
12:36am 9 15 mph 1014.5mb 55f 53f
12:30am 9 15 mph 1014.5mb 55f 53f
12:24am 9 14 mph 1014.5mb 55f 54f
12:18am 9 14 mph 1014.7mb 55f 54f
12:12am 7 17 mph 1014.6mb 55f 53f
12:06am 11 17 mph 1014.7mb 55f 54f
12:00am 9 15 mph 1014.7mb 55f 54f
Thu 02/04 11:54pm 10 17 mph 1014.7mb 55f 54f
11:48pm 8 13 mph 1014.7mb 55f 53f
11:42pm 8 13 mph 1014.8mb 55f 53f
11:36pm 8 11 mph 1014.9mb 55f 53f
11:30pm 9 14 mph 1014.8mb 55f 53f
11:24pm 7 11 mph 1015mb 55f 53f
11:18pm 9 14 mph 1015.2mb 55f 53f
11:12pm 7 9 mph 1015mb 55f 53f
11:06pm 6 11 mph 1015mb 55f 53f
11:00pm 5 11 mph 1015mb 55f 53f
10:54pm 6 14 mph 1014.9mb 55f 53f
10:48pm 7 14 mph 1014.8mb 55f 53f
10:42pm 5 9 mph 1015mb 55f 53f
10:36pm 6 13 mph 1014.9mb 55f 53f
10:30pm 6 9 mph 1014.9mb 55f 53f
10:24pm 8 11 mph 1015mb 55f 53f
10:18pm 7 11 mph 1015.2mb 55f 53f
10:12pm 7 11 mph 1015.5mb 55f 53f
10:06pm 5 9 mph 1015.4mb 55f 53f
10:00pm 5 8 mph 1015.3mb 55f 53f
9:54pm 5 8 mph 1015.5mb 55f 53f
9:48pm 5 8 mph 1015.5mb 55f 53f
9:42pm 8 10 mph 1016.1mb 55f 53f
9:36pm 6 8 mph 1016mb 55f 53f
9:30pm 6 8 mph 1015.9mb 55f 53f
9:24pm 6 8 mph 1015.4mb 55f 53f
9:18pm 7 10 mph 1015.6mb 55f 53f
9:12pm 7 11 mph 1015.3mb 55f 53f
9:06pm 6 8 mph 1015.1mb 55f 53f
9:00pm 6 10 mph 1015.4mb 55f 53f
8:54pm 7 10 mph 1015.4mb 55f 53f
8:48pm 3 10 mph 1015.4mb 55f 53f
8:42pm 6 11 mph 1015.4mb 55f 53f
8:36pm 6 10 mph 1015.6mb 55f 54f
8:30pm 5 9 mph 1015.3mb 55f 53f
8:24pm 6 8 mph 1014.8mb 55f 53f
8:18pm 6 9 mph 1015.1mb 55f -
8:12pm 6 10 mph 1014.8mb 55f -
8:06pm 7 10 mph 1015.3mb 55f -
8:00pm 6 8 mph 1015.1mb 55f 54f
7:54pm 5 9 mph 1014.8mb 55f 54f
7:48pm 6 8 mph 1014.9mb 55f 55f
7:42pm 6 8 mph 1014.8mb 55f 54f
7:36pm 5 7 mph 1014.6mb 55f 54f
7:30pm 5 8 mph 1014.5mb - 54f
7:24pm 5 7 mph 1014.3mb - 55f
7:18pm 6 9 mph 1014.5mb 55f 55f
7:12pm 6 8 mph 1014.8mb 55f 55f
7:06pm 7 11 mph 1014.7mb 55f 55f
7:00pm 8 10 mph 1014.1mb 55f 55f
6:54pm 7 11 mph 1014.1mb 55f 55f
6:48pm 7 11 mph 1014.3mb 55f -
6:42pm 8 13 mph 1014.4mb 55f -
6:36pm 9 14 mph 1014.4mb 55f -
6:30pm 10 13 mph 1014.2mb 55f 55f
6:24pm 7 10 mph 1014.1mb 55f 55f
6:18pm 7 14 mph 1013.9mb 55f 54f
6:12pm 9 14 mph 1013.9mb 55f 54f
6:06pm 8 11 mph 1013.8mb 55f 55f
6:00pm 7 11 mph - 55f 55f
5:54pm 10 15 mph - 55f 55f
5:48pm 10 16 mph 1014.1mb 55f 56f
5:42pm 9 11 mph 1013.9mb 55f 56f
5:36pm 9 13 mph 1013.8mb 55f 56f
5:30pm 8 13 mph 1013.8mb 55f 56f
5:24pm 10 16 mph 1013.7mb 55f 56f
5:18pm 8 15 mph 1013.9mb 55f 56f
5:12pm 10 16 mph 1013.9mb 55f 57f
5:06pm 8 11 mph 1013.9mb 55f 58f
5:00pm 7 9 mph 1013.8mb - 58f
4:54pm 7 10 mph 1013.7mb - 58f
4:48pm 8 10 mph 1013.6mb 55f 59f
4:42pm 6 9 mph 1013.8mb 55f 60f
4:36pm 8 10 mph 1013.8mb 55f 60f
4:30pm 5 7 mph 1013.3mb 55f 60f
4:24pm 3 7 mph 1013.5mb 55f 61f
4:18pm 6 8 mph 1013.7mb 55f 61f
4:12pm 6 10 mph 1013.9mb 55f 61f
4:06pm 5 11 mph 1014mb 55f 62f
4:00pm 7 9 mph 1014.1mb 55f 63f
3:54pm 5 7 mph 1014mb 55f 63f
3:48pm 3 5 mph 1013.5mb 55f 62f
3:42pm 3 7 mph 1013.5mb 55f 62f
3:36pm 6 7 mph 1013.6mb 55f 62f
3:30pm 6 7 mph 1013.8mb 55f 61f
3:24pm 6 7 mph 1013.6mb 55f 62f
3:18pm 5 6 mph 1014mb 55f 62f
3:12pm 3 7 mph 1013.9mb 55f 62f
3:06pm 6 8 mph 1014.5mb 55f 62f
3:00pm 6 11 mph 1014.6mb 55f 63f
2:54pm 7 13 mph 1014.7mb 55f 62f
2:48pm 6 9 mph 1014.6mb 55f 62f
2:42pm 7 10 mph 1014.7mb 55f 62f
2:36pm 6 11 mph 1014.8mb 55f 61f
2:30pm 7 9 mph 1014.8mb 55f 61f
2:24pm 3 5 mph 1014.9mb 55f 59f
2:18pm 2 3 mph 1015mb 55f 58f
2:12pm 2 5 mph 1015.1mb 55f 58f
2:06pm 2 3 mph 1015.1mb 55f 58f
2:00pm 2
mph
1015.2mb 55f 58f
1:54pm 2 3 mph 1015.3mb 55f 58f
1:48pm 3 6 mph 1015.4mb 55f 58f
1:42pm 2 5 mph 1015.4mb 55f 58f
1:36pm 3 5 mph 1015.4mb 55f 58f
1:30pm  -  1 mph 1015.5mb 55f 58f
1:24pm  -  mph 1015.5mb 55f 58f
1:18pm  -  2 mph 1015.7mb 55f 58f
1:12pm 2 3 mph 1015.8mb 55f 58f
1:06pm 1
mph
1015.8mb 55f 58f
1:00pm 1 2 mph 1015.8mb 55f 58f
12:54pm 1 2 mph 1015.9mb 55f 57f
12:48pm 2 3 mph 1015.9mb 55f 58f
12:42pm 2 3 mph 1016mb 55f 58f
12:36pm 1 3 mph 1016.1mb 55f 59f
12:30pm 1 5 mph 1016.1mb 55f 60f
12:24pm 3 5 mph 1016.2mb 55f 60f
12:18pm 3 6 mph 1016.3mb 55f 60f
12:12pm 3 6 mph 1016.5mb 55f 60f
12:06pm 3 6 mph 1016.7mb 55f 60f
12:00pm 3 7 mph 1016.9mb 55f 60f
11:54am 5 7 mph 1017.1mb 55f 60f
11:48am 3 7 mph 1017.2mb 55f 60f
11:42am 3 7 mph 1017.4mb 55f 60f
11:36am 2 7 mph 1017.5mb 55f 60f
11:30am 5 9 mph 1017.4mb 55f 60f
11:24am 6 9 mph 1017.5mb 55f 60f
11:18am 6 10 mph 1017.6mb 55f 60f
11:12am 9 11 mph 1017.1mb 55f 61f
11:06am 9 13 mph 1017.2mb 55f 62f
11:00am 6 11 mph 1017.4mb 55f 62f
10:54am 6 11 mph 1017.6mb 55f 62f
10:48am 5 7 mph 1017.5mb 55f 63f
10:42am 2 7 mph 1017.4mb 55f 63f
10:36am 6 9 mph 1017.5mb 55f 63f
10:30am 6 8 mph 1017.6mb 55f 64f
10:24am 5 10 mph 1017.6mb 55f 65f
10:18am 7 9 mph 1017.8mb 55f 65f
10:12am 3 7 mph 1017.7mb 55f 65f
10:06am 6 7 mph 1017.6mb 55f 65f
10:00am 5 7 mph 1017.4mb 55f 65f
9:54am 3 7 mph 1017.3mb 55f 65f
9:48am 5 6 mph 1017.3mb 55f 65f
9:42am 3 6 mph 1017.2mb 55f 65f
9:36am 5 7 mph 1017.1mb 55f 65f
9:30am 3 6 mph 1017mb 55f 65f
9:24am 5 6 mph 1017mb 55f 65f
9:18am 5 8 mph 1016.9mb 55f 65f
9:12am 5 6 mph 1016.9mb 55f 65f
9:06am 3 6 mph 1016.9mb 55f 65f
9:00am 6 8 mph 1017.1mb 55f 65f
8:54am 3 6 mph 1016.9mb 55f 65f
8:48am 6 7 mph 1016.5mb 55f 65f
8:42am 5 9 mph 1016.5mb 55f 64f
8:36am 6 10 mph 1016.4mb 55f 64f
8:30am 5 9 mph 1016.3mb 55f 64f
8:24am 6 10 mph 1016.4mb 55f 64f
8:18am 8 11 mph 1016.2mb 55f 64f
8:12am 9 11 mph 1016.2mb 55f 64f
8:06am 9 14 mph 1016.1mb 55f 64f
8:00am 8 13 mph 1016mb 55f 64f
7:54am 6 10 mph 1016mb 55f 64f
7:48am 6 9 mph 1015.9mb 55f 64f
7:42am 6 7 mph 1015.8mb 55f 64f
7:36am 6 8 mph 1015.6mb 55f 65f
7:30am 5 6 mph 1015.2mb 55f 65f
7:24am 6 8 mph 1015.3mb 55f 65f
7:18am 5 8 mph 1015.2mb 55f 65f
7:12am 6 8 mph 1015.2mb 55f 65f
7:06am 5 8 mph 1015mb 55f 65f
7:00am 6 9 mph 1015.1mb 55f 65f
6:54am 6 10 mph 1015.1mb 55f 65f
6:48am 8 14 mph 1015.3mb 55f 65f
6:42am 9 13 mph 1015.3mb 55f 65f
6:36am 9 13 mph 1015.2mb 55f 65f
6:30am 8 13 mph 1015.3mb 55f 65f
6:24am 9 14 mph 1015.3mb 55f 65f
6:18am 9 14 mph 1015.2mb 55f 65f
6:12am 9 14 mph 1015mb 55f 65f
6:06am 11 16 mph 1015.1mb 55f 65f
6:00am 10 13 mph 1015.1mb 55f 65f
5:54am 9 13 mph 1015mb 55f 65f
5:48am 7 10 mph 1014.9mb 55f 65f
5:42am 6 9 mph 1014.8mb 55f 65f
5:36am 6 10 mph 1014.8mb 55f 65f
5:30am 7 11 mph 1014.9mb 55f 65f
5:24am 7 10 mph 1015.1mb 55f 65f
5:18am  -  mph - - 65f
5:12am  -  mph - - 65f
5:06am  -  mph - - 65f
5:00am 8 14 mph - - -
4:54am 9 15 mph - - -
4:48am  -  mph - - 65f
4:42am  -  mph - - 65f
4:36am  -  mph - - 65f
4:30am 11 18 mph 1015.2mb 55f 65f
4:24am 11 17 mph 1015.2mb 55f 65f
4:18am 10 15 mph 1015.3mb 55f 65f
4:12am 9 15 mph 1015.3mb 55f 65f
4:06am 9 14 mph 1015.2mb 55f 65f
4:00am 9 15 mph 1015.1mb 55f 65f
3:54am 11 17 mph 1015.2mb 55f 65f
3:48am 9 17 mph 1015.1mb 55f 65f
3:42am 14 18 mph 1015mb 55f 65f
3:36am 11 18 mph 1015mb 55f 65f
3:30am 10 17 mph 1015mb 55f 66f
3:24am 13 18 mph 1015mb 55f 66f
3:18am 11 15 mph 1015mb 55f 66f
3:12am 13 18 mph 1015mb 55f 66f
3:06am 10 16 mph 1015mb 55f 67f
3:00am 11 16 mph 1015.1mb 55f 67f
2:54am 9 16 mph 1015mb 55f 67f
2:48am 11 16 mph 1015.1mb 55f 67f
2:42am 13 18 mph 1015.2mb 55f 67f
2:36am 10 15 mph 1015.2mb 55f 67f
2:30am 10 18 mph 1015.3mb 55f 67f
2:24am 10 14 mph 1015.3mb 55f 66f
2:18am 8 13 mph 1015.2mb 55f 66f
2:12am 10 15 mph 1015.4mb 55f 66f
2:06am 8 13 mph 1015.4mb 55f 66f
2:00am 8 11 mph 1015.4mb 55f 66f
1:54am 6 10 mph 1015.4mb 55f 66f
1:48am 7 10 mph 1015.5mb 55f 66f
1:42am 7 10 mph 1015.4mb 55f 67f
1:36am 7 9 mph 1015.4mb 55f 67f
1:30am 6 9 mph 1015.4mb 55f 67f
1:24am 5 7 mph 1015.5mb 55f 67f
1:18am 5 7 mph 1015.4mb 55f 67f
1:12am 5 8 mph 1015.3mb 55f 67f
1:06am 6 8 mph 1015.3mb 55f 67f
1:00am 3 6 mph 1015.4mb 55f 67f
12:54am 5 6 mph 1015.5mb 55f 67f
12:48am 6 10 mph 1015.6mb 55f 67f
12:42am 6 9 mph 1015.6mb 55f 66f
12:36am 6 9 mph 1015.6mb 55f 66f
12:30am 5 7 mph 1015.7mb 55f 66f
12:24am 6 10 mph 1015.7mb 55f 66f
12:18am 6 8 mph 1015.9mb 55f 66f
12:12am 5 9 mph 1016mb 55f 66f
12:06am 5 6 mph 1015.9mb 55f 66f
12:00am 6 9 mph 1016.1mb 55f 66f
Wed 02/03 11:54pm 6 11 mph 1016.3mb 55f 66f
11:48pm 6 10 mph 1016.3mb 55f 66f
11:42pm 6 8 mph 1016.2mb 55f 66f
11:36pm 6 8 mph 1016mb 55f 66f
11:30pm 6 8 mph 1016.2mb 55f 66f
11:24pm 6 7 mph 1016.2mb 55f 65f
11:18pm 3 7 mph 1016mb 55f 65f
11:12pm 5 7 mph 1016.2mb 55f 65f
11:06pm 5 8 mph 1016.3mb 55f 66f
11:00pm 6 9 mph 1016.3mb 55f 66f
10:54pm 6 8 mph 1016.3mb 55f 66f
10:48pm 6 8 mph 1016.3mb 55f 66f
10:42pm 6 8 mph 1016.4mb 55f 66f
10:36pm 6 8 mph 1016.3mb 55f 67f
10:30pm 6 8 mph 1016.4mb 55f 67f
10:24pm 6 8 mph 1016.6mb 55f 67f
10:18pm 3 11 mph 1016.6mb 55f 67f
10:12pm 7 21 mph 1016.7mb 55f 67f
10:06pm 10 16 mph 1016.9mb 55f 69f
10:00pm 10 17 mph 1016.4mb 55f 68f
9:54pm 11 17 mph 1016.1mb 55f 68f
9:48pm 13 16 mph 1016mb 55f 68f
9:42pm 6 15 mph 1016mb 55f 69f
9:36pm 13 20 mph 1015.9mb 55f 68f
9:30pm 11 22 mph 1015.7mb 55f 68f
9:24pm 16 22 mph 1015.7mb 55f 68f
9:18pm 14 22 mph 1015.7mb 55f 68f
9:12pm 13 17 mph 1015.5mb 55f 68f
9:06pm 10 18 mph 1015.4mb 55f 67f
9:00pm 10 21 mph 1015.5mb 55f 67f
8:54pm 11 17 mph 1015.5mb 55f 67f
8:48pm 10 15 mph 1015.5mb - 67f
8:42pm 11 18 mph 1015.4mb - 66f
8:36pm 13 17 mph 1015.3mb - 67f
8:30pm 13 18 mph 1015.4mb 55f 67f
8:24pm 13 17 mph 1015.4mb 55f 67f
8:18pm 11 17 mph 1015.5mb 55f 67f
8:12pm 11 16 mph 1015.6mb 55f 67f
8:06pm 10 14 mph 1015.7mb 55f 67f
8:00pm 9 15 mph 1015.7mb 55f 66f
7:54pm 9 15 mph 1015.7mb 55f 66f
7:48pm 9 14 mph 1015.7mb 55f 67f
7:42pm 9 17 mph 1015.9mb 55f 67f
7:36pm 10 16 mph 1015.9mb 55f 67f
7:30pm 10 18 mph 1015.7mb 55f 67f
7:24pm 11 15 mph 1015.7mb 55f 67f
7:18pm 10 17 mph 1015.6mb 55f 67f
7:12pm 9 16 mph 1015.5mb 55f 67f
7:06pm 10 17 mph 1015.5mb 55f 67f
7:00pm 13 18 mph 1015.5mb 55f 68f
6:54pm 10 15 mph 1015.5mb 55f 68f
6:48pm 13 18 mph - 55f 68f
6:42pm 11 17 mph - 55f 68f
6:36pm 10 18 mph - 55f 68f
6:30pm 11 18 mph 1015.2mb 55f 68f
6:24pm 11 18 mph 1015.1mb 55f 68f
6:18pm  -  mph 1015.1mb 55f 67f